Regional Weather Roundup
Issued by NWS

Home | Current Version | Previous Version | Text Only | Print | Product List | Glossary Off
Versions: 1 2 3 4 5 6 7 8 9 10 11 12 13 14 15 16 17 18 19 20 21 22 23 24 25 26 27

000
ASUS45 KTFX 270010
RWRMT
MONTANA REGIONAL WEATHER ROUNDUP
NATIONAL WEATHER SERVICE GREAT FALLS MT
600 PM MDT TUE JUL 26 2016

NOTE: "FAIR" INDICATES FEW OR NO CLOUDS BELOW 12000 FEET WITH NO
SIGNIFICANT WEATHER AND/OR OBSTRUCTIONS TO VISIBILITY.

MTZ001>007-043-270100-
WEST OF THE DIVIDE

CITY           SKY/WX    TMP DP  RH WIND       PRES   REMARKS
KALISPELL      MOSUNNY   85  52  32 NE8       30.01S
MISSOULA       MOSUNNY   83  51  33 N20G29    30.02R
BUTTE          CLOUDY    78  37  22 CALM      30.18S
MULLAN PASS    MOSUNNY   74  48  39 CALM      30.22F
ANACONDA         N/A     75  50  41 S5        30.12F
DEER LODGE       N/A     79  48  34 S6        30.12F
EUREKA           N/A     81  48  32 W8        30.06S
HAMILTON         N/A     88  52  29 N3        30.01S
LIBBY            N/A     88  46  23 NW8       30.01F
PLAINS           N/A     88  51  27 W7        30.01F
RONAN            N/A     85  53  33 N6        30.08S
$$

MTZ008-052>055-270100-
SOUTHWEST MONTANA

CITY           SKY/WX    TMP DP  RH WIND       PRES   REMARKS
BOZEMAN        CLOUDY    78  45  30 E9        30.12S
DILLON         MOSUNNY   81  38  21 SE6       30.13F
W YELLOWSTONE  CLOUDY    77  36  22 NW8G21    30.27R
ENNIS          SUNNY     81  41  24 S14       30.22S
THREE FORKS      N/A     79 -23   1 E5        30.08F
TWIN BRIDGES     N/A     80  44  27 SE5       30.11R
$$

MTZ009-010-012-014-046-048-049-054-270100-
EAST SLOPES AND CENTRAL MONTANA

CITY           SKY/WX    TMP DP  RH WIND       PRES   REMARKS
CUT BANK       CLOUDY    67  56  67 N7        30.09F
GREAT FALLS    LGT RAIN  71  55  56 N22G36    30.04R VSB 1/2
MALMSTROM AFB  CLOUDY    75  52  43 N25G37    30.02R
HELENA         CLOUDY    90  40  17 S7        30.00F
CHOTEAU          N/A     63  59  88 NW10      30.11S
CONRAD           N/A     65  61  87 CALM      30.12S
$$

MTZ011-013-016-021-045-047-050-051-270100-
NORTH CENTRAL MONTANA

CITY           SKY/WX    TMP DP  RH WIND       PRES   REMARKS
HAVRE          CLOUDY    85  58  39 SE12      29.97F
LEWISTOWN      CLOUDY    78  53  41 CALM      30.07F
N BAR RANCH      N/A     77  50  38 E5        30.13R
CHINOOK          N/A     84  61  45 E13G18    29.98S
$$

MTZ017>020-022>027-061-062-270100-
NORTHEAST MONTANA

CITY           SKY/WX    TMP DP  RH WIND       PRES   REMARKS
GLASGOW        SUNNY     78  59  51 E21       30.01F
JORDAN           N/A     88  54  31 E16       30.00F
SIDNEY         MOSUNNY   82  62  50 NE15      30.05S
WOLF POINT     SUNNY     85  56  37 E16G22    30.03F
PLENTYWOOD       N/A     77  55  47 N5        30.08F
POPLAR           N/A     81  57  44 E14       30.05F
SCOBEY           N/A     73  52  47 NE3       30.07F
$$

MTZ028>42-056>058-270100-
SOUTHCENTRAL AND SOUTHEAST MONTANA

CITY           SKY/WX    TMP DP  RH WIND       PRES   REMARKS
BAKER          SUNNY     83  53  35 NE16G23   30.06F
BILLINGS       PTSUNNY   89  39  17 NE8       30.02S THUNDER
LIVINGSTON     CLOUDY    79  40  24 W24G41    30.10R
MILES CITY     SUNNY     89  52  28 NE18      29.99F
EKALAKA          N/A     82  52  35 NE12      30.05S
LAUREL           N/A     89  43  20 N3        30.01
ROUNDUP          N/A     86  46  24 N6        29.95R
$$

REGIONAL REPORTS...DAKOTAS

CITY           SKY/WX    TMP DP  RH WIND       PRES   REMARKS
WILLISTON      CLOUDY    78  54  43 NE12      30.08R
MINOT          CLOUDY    78  60  53 N6        30.04S
DICKINSON      SUNNY     75  58  55 NE15      30.06F
BEACH            N/A     77  57  50 E10G17    30.10S
CROSBY           N/A     73  68  83 N3        30.10S
WATFORD CITY     N/A    N/A N/A N/A MISG        N/A
BISMARCK       PTSUNNY   79  65  62 N12       29.99F
GRAND FORKS    PTSUNNY   81  69  67 N15G23    29.93F
FARGO          CLOUDY    81  72  74 CALM      29.92S
BUFFALO SD       N/A     85  55  35 NE20      29.98S
RAPID CITY     PTSUNNY   85  47  26 E5G22     29.96F
$$

REGIONAL REPORTS...WYOMING/IDAHO/WASHINGTON

CITY           SKY/WX    TMP DP  RH WIND       PRES   REMARKS
GILLETTE       CLOUDY    84  45  25 N21       30.07R
SHERIDAN       MOSUNNY   89  44  20 VRB3      30.04S
BUFFALO WY     CLOUDY    78  55  44 W12       30.13S
CODY           MOSUNNY   82  43  24 N8G20     30.13R
YELLOWSTONE LA   N/A     71  30  21 NW7       30.36R
IDAHO FALLS    LGT RAIN  83  46  27 NW16G29   30.04R FOG
SALMON         CLOUDY    73  48  40 S7        30.13R
BOISE          SUNNY     99  39  12 NW15G23   29.92F HX  94
SPOKANE        MOSUNNY   90  45  21 VRB3      29.98F
$$

REGIONAL REPORTS...ALBERTA

CITY           SKY/WX    TMP DP  RH WIND       PRES   REMARKS
EDMONTON       MOSUNNY   77  59  53 E3        30.04F
CALGARY        PTSUNNY   72  59  64 E7        30.09F
LETHBRIDGE     PTSUNNY   66  59  77 S6        30.06F
WATERTON GATE    N/A     68  57  68 SW5         N/A
MILK RIVER       N/A     61  55  82 NE15G21     N/A
ONEFOUR          N/A     61  57  88 W33G41      N/A
$$

REGIONAL REPORTS...SASKATCHEWAN

CITY           SKY/WX    TMP DP  RH WIND       PRES   REMARKS
SWIFT CURRENT  SUNNY     73  55  53 E15       30.09S
REGINA         PTSUNNY   75  54  46 NE13      30.08F
SASKATOON      MOSUNNY   77  48  36 E7        30.11F
CYPRESS HILLS    N/A     66  54  63 E6          N/A
VAL MARIE        N/A     75  59  57 E10         N/A
ROCKGLEN         N/A     72  57  60 NE3         N/A
ASSINIBOIA       N/A     75  64  69 SW5         N/A
$$




USA.gov is the U.S. government's official web portal to all federal, state and local government web resources and services.